Location: Czekanka
(50.4925°N, 19.2643°E)
Time: 12:28:20
(UTC+00:00)

SL-16 R/B - Pass Details

Date: 15 June 2024
Orbit: 839 x 849 km, 71.0° (Epoch: 15 July)

Event Time Altitude Azimuth Distance (km) Brightness Sun altitude
Rises 01:31:54 0° 314° (NW) 3,424 5.4 -7.4°
Reaches altitude 10° 01:36:43 10° 278° (W) 2,479 4.3 -6.9°
Maximum altitude 01:37:50 11° 266° (W) 2,436 4.2 -6.8°
Drops below altitude 10° 01:38:57 10° 255° (WSW) 2,475 4.1 -6.6°
Enters shadow 01:41:04 - 236° (SW) 2,759 4.2 -6.4°
